Date String (YYYY-MM-DD hh:mm:ss) UTC,Instrument flags,Ambient pressure (hPa),Sample flow (lpm),Bypass flow (lpm),Sample temperature (°C),Ambient temperature (°C),ASC tube jacket temperature (°C),LED temperature (°C),Box temperature (°C),Sample RH (%),Span deviation,Mass concentration (μg/m³),Mass concentration (μg/m³),Mass concentration (μg/m³)
DateTimeUTC,F1_M11,P_M11,Q1_M11,Q2_M11,T1_M11,T2_M11,T3_M11,T4_M11,T5_M11,U1_M11,ZSPAN_M11,X0_M11,X2_M11,X1_M11
2021-09-12 03:00:00,,0830.4,4.99,0.00,29.1,27.3,00.0,38.2,30.9,23.5,0001.5,0023.49,0007.90,0006.16
2021-09-12 03:01:00,,0830.4,5.00,0.00,29.1,27.6,00.0,38.2,31.0,23.3,0001.7,0022.03,0007.86,0006.15
2021-09-12 03:02:00,,0830.5,5.00,0.00,29.2,27.9,00.0,38.2,31.0,23.3,0001.6,0020.55,0007.81,0006.13
2021-09-12 03:03:00,,0830.6,5.00,0.00,29.2,28.1,00.0,38.2,31.1,23.3,0001.7,0019.50,0007.71,0006.11
2021-09-12 03:04:00,,0830.5,5.00,0.00,29.3,28.3,00.0,38.2,31.2,23.3,0002.0,0019.14,0007.65,0006.10
2021-09-12 03:05:00,,0830.6,5.00,0.00,29.3,28.4,00.0,38.2,31.2,23.2,0001.9,0019.75,0007.63,0006.12
2021-09-12 03:06:00,,0830.6,5.00,0.00,29.4,28.6,00.0,38.3,31.3,23.3,0002.1,0020.13,0007.66,0006.14
2021-09-12 03:07:00,,0830.6,5.00,0.00,29.4,28.7,00.0,38.3,31.3,23.3,0001.9,0019.61,0007.66,0006.14
2021-09-12 03:08:00,,0830.5,5.00,0.00,29.4,28.0,00.0,38.3,31.2,23.4,0001.3,0018.12,0007.69,0006.16
2021-09-12 03:09:00,,0830.5,5.01,0.00,29.3,26.5,00.0,38.3,30.8,23.5,0001.4,0017.46,0007.72,0006.16
2021-09-12 03:10:00,,0830.5,5.00,0.00,29.2,26.4,00.0,38.3,30.8,23.6,0001.6,0017.31,0007.74,0006.15
2021-09-12 03:11:00,,0830.5,5.00,0.00,29.2,26.8,00.0,38.3,30.8,23.7,0001.3,0016.76,0007.72,0006.16
2021-09-12 03:12:00,,0830.4,5.00,0.00,29.2,27.1,00.0,38.3,30.9,23.8,0001.3,0016.69,0007.69,0006.16
2021-09-12 03:13:00,,0830.4,4.99,0.00,29.2,27.5,00.0,38.3,31.0,23.8,0001.4,0017.00,0007.71,0006.13
2021-09-12 03:14:00,,0830.5,5.00,0.00,29.2,27.8,00.0,38.3,31.1,23.8,0001.4,0016.86,0007.77,0006.11
2021-09-12 03:15:00,,0830.5,5.00,0.00,29.3,28.0,00.0,38.3,31.1,23.8,0001.3,0016.61,0007.77,0006.10
2021-09-12 03:16:00,,0830.4,5.01,0.00,29.3,28.2,00.0,38.3,31.2,23.8,0001.6,0015.98,0007.69,0006.07
2021-09-12 03:17:00,,0830.5,5.00,0.00,29.4,28.4,00.0,38.3,31.3,23.9,0001.3,0015.84,0007.64,0006.04
2021-09-12 03:18:00,,0830.4,5.01,0.00,29.4,28.5,00.0,38.3,31.3,23.8,0001.5,0015.60,0007.59,0006.03
2021-09-12 03:19:00,,0830.4,5.01,0.00,29.4,27.3,00.0,38.3,31.0,23.8,0002.0,0015.41,0007.52,0006.00
2021-09-12 03:20:00,,0830.4,4.99,0.00,29.3,26.3,00.0,38.3,30.7,24.0,0002.1,0015.55,0007.50,0005.99
2021-09-12 03:21:00,,0830.4,5.01,0.00,29.2,26.5,00.0,38.3,30.8,24.1,0001.8,0014.97,0007.41,0005.98
2021-09-12 03:22:00,,0830.4,4.99,0.00,29.2,26.9,00.0,38.3,30.8,24.2,0002.0,0015.11,0007.40,0005.97
2021-09-12 03:23:00,,0830.4,5.01,0.00,29.2,27.3,00.0,38.3,30.9,24.2,0001.8,0014.91,0007.39,0005.96
2021-09-12 03:24:00,,0830.5,4.99,0.00,29.2,27.6,00.0,38.3,31.0,24.2,0001.6,0014.66,0007.38,0005.96
2021-09-12 03:25:00,,0830.5,5.00,0.00,29.3,27.9,00.0,38.3,31.1,24.1,0001.5,0014.53,0007.33,0005.95
2021-09-12 03:26:00,,0830.5,5.00,0.00,29.3,28.1,00.0,38.3,31.1,24.1,0001.8,0015.26,0007.29,0005.95
2021-09-12 03:27:00,,0830.5,5.00,0.00,29.3,28.3,00.0,38.3,31.2,24.0,0001.5,0016.14,0007.30,0005.95
2021-09-12 03:28:00,,0830.5,5.00,0.00,29.4,28.5,00.0,38.3,31.3,24.0,0001.7,0016.35,0007.28,0005.94
2021-09-12 03:29:00,,0830.5,4.99,0.00,29.4,28.4,00.0,38.4,31.3,24.0,0001.8,0016.56,0007.29,0005.94
2021-09-12 03:30:00,,0830.4,5.01,0.00,29.4,26.7,00.0,38.4,30.8,24.1,0001.6,0016.75,0007.27,0005.93
2021-09-12 03:31:00,,0830.4,4.99,0.00,29.2,25.4,00.0,38.3,30.4,24.4,0001.4,0016.91,0007.29,0005.93
2021-09-12 03:32:00,,0830.4,5.00,0.00,29.1,25.6,00.0,38.3,30.4,24.7,0001.5,0017.83,0007.31,0005.93
2021-09-12 03:33:00,,0830.4,5.01,0.00,29.0,26.0,00.0,38.3,30.5,24.8,0001.7,0017.27,0007.32,0005.91
2021-09-12 03:34:00,,0830.4,5.00,0.00,29.0,26.5,00.0,38.2,30.6,24.8,0002.0,0017.57,0007.36,0005.91
2021-09-12 03:35:00,,0830.4,4.99,0.00,29.0,27.0,00.0,38.2,30.7,24.7,0002.2,0018.50,0007.45,0005.90
2021-09-12 03:36:00,,0830.5,5.01,0.00,29.0,27.3,00.0,38.2,30.8,24.7,0002.1,0018.52,0007.47,0005.89
2021-09-12 03:37:00,,0830.5,4.99,0.00,29.1,27.6,00.0,38.2,30.9,24.6,0002.0,0018.03,0007.52,0005.87
2021-09-12 03:38:00,,0830.4,5.01,0.00,29.1,27.9,00.0,38.2,31.0,24.5,0001.8,0018.25,0007.56,0005.84
2021-09-12 03:39:00,,0830.4,4.99,0.00,29.2,28.1,00.0,38.2,31.0,24.5,0001.6,0018.88,0007.58,0005.83
2021-09-12 03:40:00,,0830.4,4.99,0.00,29.2,28.2,00.0,38.2,31.1,24.5,0001.1,0019.56,0007.62,0005.80
2021-09-12 03:41:00,,0830.4,5.01,0.00,29.3,28.4,00.0,38.2,31.2,24.5,0001.1,0019.60,0007.65,0005.80
2021-09-12 03:42:00,,0830.4,5.00,0.00,29.3,28.5,00.0,38.3,31.2,24.4,0001.1,0021.02,0007.65,0005.80
2021-09-12 03:43:00,,0830.5,5.00,0.00,29.4,28.6,00.0,38.3,31.3,24.2,0000.7,0021.07,0007.65,0005.78
2021-09-12 03:44:00,,0830.5,5.00,0.00,29.4,27.4,00.0,38.3,31.0,24.2,0000.9,0021.56,0007.64,0005.77
2021-09-12 03:45:00,,0830.5,5.00,0.00,29.2,26.2,00.0,38.3,30.7,24.4,0000.5,0021.77,0007.60,0005.74
2021-09-12 03:46:00,,0830.6,5.00,0.00,29.2,26.3,00.0,38.3,30.7,24.4,0000.4,0021.46,0007.46,0005.73
2021-09-12 03:47:00,,0830.6,5.00,0.00,29.1,26.7,00.0,38.3,30.7,24.4,0000.5,0021.31,0007.46,0005.72
2021-09-12 03:48:00,,0830.6,4.99,0.00,29.1,27.0,00.0,38.2,30.8,24.3,0000.5,0021.27,0007.44,0005.71
2021-09-12 03:49:00,,0830.6,5.00,0.00,29.1,27.4,00.0,38.2,30.9,24.3,0000.5,0021.26,0007.41,0005.71
2021-09-12 03:50:00,,0830.6,5.01,0.00,29.2,27.7,00.0,38.2,31.0,24.2,0000.9,0020.35,0007.34,0005.68
2021-09-12 03:51:00,,0830.7,5.00,0.00,29.2,27.9,00.0,38.2,31.0,24.2,0001.7,0020.49,0007.26,0005.65
2021-09-12 03:52:00,,0830.8,5.00,0.00,29.3,28.1,00.0,38.3,31.1,24.1,0001.8,0021.00,0007.18,0005.62
2021-09-12 03:53:00,,0830.7,5.00,0.00,29.3,28.3,00.0,38.3,31.2,24.0,0001.7,0020.83,0007.11,0005.58
2021-09-12 03:54:00,,0830.8,5.00,0.00,29.3,28.4,00.0,38.3,31.2,23.8,0002.0,0020.71,0007.12,0005.57
2021-09-12 03:55:00,,0830.7,5.00,0.00,29.4,28.5,00.0,38.3,31.3,23.7,0002.1,0020.33,0007.10,0005.56
2021-09-12 03:56:00,,0830.7,5.01,0.00,29.4,27.9,00.0,38.3,31.1,23.7,0002.3,0020.36,0007.16,0005.57
2021-09-12 03:57:00,,0830.7,5.00,0.00,29.3,25.8,00.0,38.3,30.6,23.8,0002.3,0019.72,0007.19,0005.57
2021-09-12 03:58:00,,0830.7,4.99,0.00,29.1,25.1,00.0,38.3,30.4,24.0,0002.1,0019.93,0007.18,0005.56
2021-09-12 03:59:00,,0830.7,5.00,0.00,29.0,25.4,00.0,38.2,30.4,24.0,0001.8,0020.45,0007.19,0005.54
